Location: Litvinovka
(48.6667°N, 34.3500°E)
Time: 07:05:07
(UTC+00:00)

Lacrosse 5 rocket - Pass Details

Date: 18 September 2020
Orbit: 461 x 635 km, 57.0° (Epoch: 19 October)

Event Time Altitude Azimuth Distance (km) Brightness Sun altitude
Rises 18:11:37 0° 285° (WNW) 2,790 6.2 -23.2°
Reaches altitude 10° 18:14:05 10° 297° (WNW) 1,922 5.2 -23.6°
Maximum altitude 18:17:54 28° 357° (N) 1,154 3.2 -24.1°
Enters shadow 18:19:40 22° 34° (NE) 1,373 3.3 -24.3°
